Vertical_Velocity
-2 -1 -1 -0 -1 -0 -0 -1 -0 -1 -0 1 0 0 -0 0 1 -0 -0 -0 -0 -0 -0 -1 -0 -0 -1 -0 -0 -0 0 -1 -0 -1 -1 -1 0 0 -1 -2 -0 -1 -1
-0 -2 -1 0 -0 -1 -1 -1 -0 0 1 -1 0 0 -0 -1 -1 1 -0 -0 0 1 0 0 -1 -1 -0 -1 -0 -0 0 -0 -0 -1 -1 -1 -0 0 -1 -0 0 0 -1
-0 -1 -1 -2 -1 -0 -0 -1 -1 -1 1 -0 -1 0 -0 -0 -1 -1 -0 0 -1 0 1 -0 -1 -0 -0 -1 -1 -0 -0 -1 -0 -0 0 1 -1 -0 -1 -1 -1 -2 -1
-0 0 -1 -2 -1 -1 0 1 -1 -1 -1 1 1 0 -0 0 -0 -0 -0 1 0 -1 0 1 -0 -0 -1 -1 -0 -0 -0 -0 -1 -1 -1 -1 0 -1 -1 -1 -1 -2 -1
-1 -0 0 -1 -1 -0 1 1 -0 -1 -1 -1 0 1 0 -0 -1 1 -0 -1 0 0 -0 1 -0 -1 -0 -0 -0 0 -1 0 0 1 0 -1 -1 -1 -0 -1 -1 -1 -2
1 -0 1 -0 -1 -1 0 1 1 0 1 0 1 0 1 1 -1 -1 -0 -0 -0 -1 0 -0 -0 0 0 0 -0 -0 -0 -1 -0 0 -1 -0 -1 -1 -1 -0 -1 -1 -1
0 -1 1 0 1 -0 -0 -0 0 -1 1 2 1 1 -0 -0 1 -0 -1 -1 -1 -0 -0 -0 -0 -0 -0 -0 -1 -1 -0 -1 -1 -1 -0 -0 -1 -1 -1 -1 -1 -1 -1
-2 0 -0 0 -0 0 0 -0 0 -0 -0 0 1 2 -0 -1 -1 -0 -0 0 -0 -1 -0 -0 -1 -1 0 -0 -1 -0 -0 -1 -1 0 -1 -1 -1 0 -0 -1 -2 -1 -1
-1 2 -1 1 1 -1 0 0 -0 1 2 -1 0 -1 -1 -0 0 -1 -1 -1 -0 -1 -0 0 -0 -0 -1 -1 -1 -0 -0 0 -1 -0 -2 -1 -2 -1 -0 1 -0 -1 -1
-2 0 2 -2 1 1 0 0 0 -0 1 0 -1 -0 -0 -0 -1 0 1 -1 -0 1 0 0 1 1 -0 1 -0 -1 -1 -1 -1 0 -1 -2 -2 -3 -5 -2 -2 1 -1
0 -0 2 -1 1 1 -1 0 0 1 0 2 1 -0 0 1 1 -1 -0 -0 0 -1 -1 -0 -0 -1 0 0 -0 -1 -0 -1 0 -2 -1 -2 -1 -1 -1 -3 -3 -3 -2
0 -0 -1 1 -0 2 -0 -1 0 1 1 1 2 0 0 -1 -1 -1 -0 -1 -1 -0 -0 -1 -1 -0 0 0 -1 0 0 -1 0 -2 -0 -1 -0 -0 1 -2 -3 -3 -3
5 6 0 0 2 -1 -1 -1 0 1 2 0 1 2 0 -0 -0 -1 -2 -1 -1 -1 -0 -1 0 -0 -1 -2 -0 -1 0 -1 -1 -1 -1 -1 -1 -1 -0 1 -0 -1 -1
0 33 0 0 0 0 3 -0 1 3 1 1 1 2 2 0 0 1 -0 -1 -1 -2 -3 -0 -1 -1 0 1 0 0 -1 -1 -1 -1 -2 -1 -0 -1 -0 0 -0 0 -0
4 8 -3 0 3 1 2 1 -3 -1 -1 2 -1 1 1 0 1 0 -0 -0 -0 1 -0 -2 -1 -3 -2 -1 0 0 1 0 1 0 -2 -1 -1 -1 0 1 2 0 -1
31 6 0 3 4 1 2 -0 -0 -2 -0 -0 2 0 0 -0 2 1 1 0 0 1 -1 2 0 1 2 1 -1 -0 0 -2 -1 -2 -1 -2 -1 -3 -4 -1 1 2 4
5 6 0 -1 5 0 2 1 0 -1 0 1 3 -1 1 -0 0 0 -0 0 -0 1 0 -0 0 -0 -1 -1 -1 -0 2 0 1 -1 -2 -1 -1 0 -2 -7 -0 -0 0
7 1 4 1 2 -0 1 2 1 -0 -3 0 1 1 -1 -0 1 1 0 0 -1 1 0 -1 -1 0 -1 -1 -1 -1 -1 2 -1 -1 -1 -0 4 3 1 0 -2 -3 -4
3 2 1 -1 10 0 0 -1 -1 3 -2 -1 2 -1 -1 1 1 1 1 0 1 0 2 0 -3 -2 -1 -1 0 -2 -2 -2 -0 -2 -2 -4 -2 -4 -1 3 1 1 -1
8 1 -2 0 -3 2 4 2 2 -1 1 -0 -0 0 1 0 0 -0 -1 -1 1 -2 -2 -0 -0 -0 -2 -0 0 -1 -1 -1 0 1 -1 -3 -3 -2 -3 -0 3 -3 3
2 1 -2 -1 -1 2 2 0 -3 -1 -2 1 -0 1 -1 0 1 1 -1 -3 1 -2 -3 -2 -0 1 -1 -3 1 -3 1 -0 -6 -1 -1 -1 -6 1 -3 0 0 -3 -0
-2 2 5 2 5 1 1 -0 -0 -3 -3 -1 2 2 -1 -1 1 1 1 -0 -2 -1 -3 -2 -2 -1 1 -1 -0 -1 3 8 -5 -3 -3 -3 -4 -3 -4 5 1 -3 1
3 0 5 0 -2 2 2 -8 1 -3 -3 -1 -1 4 0 1 -1 0 -1 1 2 -0 -2 -1 -3 -2 2 2 1 -8 -4 5 4 -1 -1 -0 -2 -2 -6 7 -2 -7 1
1 -0 0 8 0 -0 -9 0 -3 -0 7 10 2 5 -5 0 -1 1 -0 -2 -1 -1 -3 2 -1 -1 -8 1 1 -4 -5 -5 -0 8 1 -2 1 -0 -1 -0 2 0 -1
-1 1 1 3 1 -1 21 11 14 6 7 6 -1 0 11 5 -2 1 2 -1 -0 -4 -1 -1 0 -0 -5 0 -1 -0 -0 -3 -4 -6 8 -4 2 -5 8 1 -2 0 3
2 -3 0 1 -3 -1 -2 -1 -1 9 7 6 8 -1 -0 3 -2 -2 0 -1 1 1 -0 -2 -1 -1 -2 -0 -2 -0 -0 -2 1 -2 -4 3 -1 -9 2 6 -5 0 -1
Height
5894 5896 5898 5900 5902 5904 5905 5906 5908 5909 5909 5909 5909 5908 5908 5909 5909 5909 5909 5908 5908 5907 5906 5904 5904 5903 5902 5900 5900 5899 5898 5897 5895 5894 5892 5891 5890 5889 5887 5886 5884 5882 5879
5892 5894 5896 5898 5900 5902 5903 5905 5906 5907 5908 5908 5908 5908 5908 5908 5908 5908 5908 5908 5907 5906 5905 5904 5903 5902 5901 5899 5898 5897 5897 5896 5894 5893 5892 5891 5890 5888 5887 5885 5883 5881 5878
5889 5892 5894 5896 5898 5900 5902 5903 5905 5906 5907 5907 5907 5907 5907 5907 5907 5907 5907 5907 5906 5905 5904 5903 5902 5900 5899 5898 5897 5896 5896 5895 5893 5893 5891 5890 5889 5888 5886 5884 5882 5880 5877
5886 5889 5892 5894 5897 5899 5900 5901 5903 5904 5905 5906 5906 5907 5906 5906 5906 5906 5906 5905 5905 5903 5903 5902 5901 5899 5898 5897 5896 5895 5895 5894 5893 5891 5890 5889 5888 5886 5884 5882 5880 5877 5875
5884 5886 5889 5892 5895 5897 5898 5899 5900 5902 5903 5905 5905 5905 5905 5905 5905 5905 5904 5904 5903 5902 5901 5900 5899 5898 5897 5896 5896 5895 5894 5893 5892 5890 5889 5888 5886 5885 5883 5881 5878 5876 5873
5880 5883 5886 5890 5892 5894 5896 5897 5898 5899 5901 5902 5903 5904 5903 5903 5903 5903 5903 5902 5902 5901 5899 5898 5898 5897 5896 5895 5895 5894 5893 5892 5890 5889 5888 5887 5885 5883 5881 5879 5876 5874 5871
5877 5881 5884 5887 5889 5891 5893 5895 5896 5897 5898 5899 5901 5901 5902 5902 5902 5901 5900 5899 5899 5899 5898 5897 5896 5896 5894 5894 5893 5892 5891 5890 5889 5887 5886 5885 5883 5881 5879 5877 5875 5872 5869
5873 5877 5881 5884 5887 5888 5890 5893 5894 5895 5896 5897 5898 5900 5900 5900 5900 5899 5899 5898 5897 5896 5896 5895 5894 5894 5893 5892 5891 5890 5889 5888 5886 5885 5883 5882 5881 5879 5877 5875 5872 5870 5867
5868 5873 5878 5880 5883 5886 5888 5890 5892 5893 5894 5895 5896 5897 5898 5899 5898 5897 5897 5897 5896 5895 5894 5894 5893 5891 5891 5890 5889 5888 5887 5885 5884 5882 5881 5879 5877 5876 5875 5873 5870 5867 5863
5863 5867 5873 5877 5880 5883 5885 5887 5889 5890 5891 5892 5893 5894 5895 5896 5896 5896 5895 5895 5894 5893 5893 5892 5891 5890 5889 5888 5887 5886 5884 5883 5882 5880 5878 5876 5874 5872 5870 5868 5866 5864 5860
5858 5863 5867 5873 5876 5879 5881 5884 5886 5887 5889 5889 5890 5891 5892 5893 5894 5893 5893 5893 5892 5891 5890 5890 5889 5888 5887 5886 5885 5883 5883 5881 5879 5878 5876 5874 5872 5870 5866 5863 5861 5858 5855
5852 5857 5862 5867 5872 5875 5877 5879 5882 5884 5885 5887 5887 5888 5889 5890 5890 5891 5889 5890 5889 5888 5888 5886 5886 5885 5884 5883 5882 5881 5880 5878 5877 5875 5873 5871 5869 5867 5864 5861 5857 5854 5851
5846 5850 5855 5860 5866 5870 5873 5875 5878 5880 5881 5883 5884 5884 5885 5886 5886 5888 5888 5887 5887 5885 5884 5884 5882 5882 5881 5880 5879 5878 5877 5876 5874 5872 5869 5868 5866 5863 5860 5857 5854 5851 5847
5840 5844 5849 5855 5860 5864 5868 5871 5875 5875 5877 5878 5880 5880 5881 5882 5883 5883 5885 5885 5885 5884 5882 5881 5880 5879 5877 5877 5875 5874 5873 5871 5870 5868 5865 5863 5861 5858 5856 5852 5849 5846 5843
5837 5840 5846 5851 5856 5859 5862 5866 5868 5871 5871 5874 5875 5876 5877 5878 5880 5880 5881 5881 5880 5880 5879 5878 5877 5876 5875 5873 5873 5871 5870 5868 5865 5863 5861 5858 5856 5853 5850 5847 5845 5841 5838
5832 5836 5841 5846 5850 5854 5857 5862 5863 5866 5867 5869 5869 5871 5872 5873 5876 5876 5877 5876 5876 5876 5876 5875 5873 5873 5872 5870 5869 5868 5866 5864 5861 5859 5856 5853 5851 5847 5844 5841 5839 5836 5833
5823 5829 5835 5839 5844 5849 5852 5855 5858 5859 5862 5862 5864 5865 5867 5868 5870 5872 5872 5872 5872 5872 5871 5870 5870 5869 5868 5867 5865 5864 5862 5860 5857 5854 5852 5848 5844 5842 5839 5834 5831 5829 5826
5821 5827 5829 5833 5838 5843 5846 5849 5852 5853 5855 5857 5858 5859 5861 5863 5864 5865 5866 5867 5866 5866 5866 5865 5864 5863 5862 5861 5860 5858 5856 5854 5852 5849 5846 5843 5840 5837 5833 5830 5826 5823 5819
5817 5822 5826 5830 5834 5836 5841 5843 5846 5847 5849 5851 5852 5853 5854 5857 5858 5858 5860 5860 5860 5860 5860 5860 5859 5857 5856 5855 5853 5852 5849 5847 5845 5841 5838 5835 5832 5828 5826 5823 5820 5816 5812
5811 5817 5821 5823 5827 5830 5834 5837 5840 5841 5842 5844 5845 5847 5848 5849 5851 5852 5853 5853 5853 5853 5853 5852 5852 5851 5850 5848 5847 5846 5843 5840 5838 5835 5832 5829 5826 5822 5818 5814 5812 5808 5804
5805 5809 5812 5817 5820 5824 5826 5830 5831 5833 5835 5837 5838 5840 5840 5842 5843 5844 5845 5846 5846 5846 5845 5845 5844 5844 5842 5840 5839 5838 5836 5833 5830 5826 5825 5822 5818 5815 5812 5808 5804 5800 5795
5797 5802 5805 5810 5813 5816 5819 5822 5825 5826 5828 5829 5831 5832 5834 5834 5834 5835 5836 5837 5838 5838 5838 5837 5836 5836 5834 5833 5830 5829 5829 5828 5823 5819 5817 5814 5811 5808 5804 5801 5797 5793 5788
5790 5794 5798 5801 5806 5809 5813 5815 5818 5819 5820 5821 5823 5825 5826 5826 5826 5827 5827 5828 5828 5829 5829 5828 5827 5826 5825 5824 5822 5819 5818 5817 5815 5812 5809 5806 5803 5800 5798 5795 5789 5784 5780
5782 5786 5791 5794 5796 5799 5803 5806 5808 5809 5810 5812 5814 5816 5817 5817 5818 5818 5818 5818 5819 5820 5821 5819 5818 5817 5816 5814 5813 5810 5808 5806 5804 5804 5801 5797 5794 5791 5789 5785 5780 5776 5770
5774 5778 5782 5786 5787 5790 5791 5795 5795 5797 5800 5800 5803 5806 5808 5809 5810 5810 5810 5810 5810 5811 5810 5810 5808 5807 5805 5803 5802 5800 5798 5797 5794 5792 5791 5786 5784 5781 5779 5776 5771 5768 5763
5767 5769 5773 5777 5780 5782 5784 5787 5787 5790 5792 5793 5793 5795 5797 5798 5799 5801 5801 5800 5800 5799 5799 5798 5796 5795 5795 5793 5791 5789 5788 5787 5785 5783 5781 5777 5774 5771 5769 5766 5762 5758 5754